Powrót do katalogu

COSMOS 252 DEB

AktywnyLEO
NORAD 3900·DEBRIS·🇷🇺 Russia

Wystrzelony Nov 1, 1968 z Baikonur Cosmodrome

Loading…

Następne Przeloty (najbliższe 24 godziny)

TLE

ŚwieżeSource: Space-Track

Epoka: Sep 14, 2026, 06:22 UTC

1 03900U 68097BM  26257.26567218  .00005675  00000-0  48820-3 0  9999
2 03900  62.1980  46.2489 0174466 288.1577  70.0580 14.87499194902781

Śledź COSMOS 252 DEB w czasie rzeczywistym z AllMySat

Download on the App Store